This is the latest recevied weather packets stored in our database for station/object W8UFO-13. If no packets are shown the sender has not sent any weather packets the latest 10 day(s).
| Time | Temp. | Humidity | Pressure | Rain* | Wind** | Luminosity | Snow |
|---|---|---|---|---|---|---|---|
| 1777835057 | 18.89° C | 44% | 1020.9 hPa | 0 mm | - | - | - |
| 1777834757 | 18.33° C | 43% | 1021 hPa | 0 mm | - | - | - |
| 1777834456 | 18.33° C | 43% | 1020.9 hPa | 0 mm | - | - | - |
| 1777834157 | 18.33° C | 45% | 1021 hPa | 0 mm | - | - | - |
| 1777833857 | 18.33° C | 45% | 1021 hPa | 0 mm | - | - | - |
| 1777833557 | 18.33° C | 44% | 1021.2 hPa | 0 mm | - | - | - |
| 1777833257 | 18.33° C | 47% | 1021.3 hPa | 0 mm | - | - | - |
| 1777832957 | 18.33° C | 44% | 1021.2 hPa | 0 mm | - | - | - |
| 1777832657 | 18.33° C | 47% | 1021.5 hPa | 0 mm | - | - | - |
| 1777832357 | 18.89° C | 45% | 1021.7 hPa | 0 mm | - | - | - |
| 1777832057 | 18.89° C | 48% | 1021.6 hPa | 0 mm | - | - | - |
| 1777831757 | 18.33° C | 47% | 1021.6 hPa | 0 mm | - | - | - |
| 1777831457 | 17.78° C | 46% | 1021.7 hPa | 0 mm | - | - | - |
| 1777831157 | 17.78° C | 42% | 1021.8 hPa | 0 mm | - | - | - |
| 1777830856 | 17.78° C | 45% | 1021.9 hPa | 0 mm | - | - | - |
| 1777830556 | 18.33° C | 45% | 1021.9 hPa | 0 mm | - | - | - |
| 1777830256 | 18.33° C | 43% | 1022 hPa | 0 mm | - | - | - |
| 1777829956 | 17.78° C | 50% | 1022.1 hPa | 0 mm | - | - | - |
| 1777829657 | 16.67° C | 45% | 1022 hPa | 0 mm | - | - | - |
| 1777829356 | 16.67° C | 46% | 1022.1 hPa | 0 mm | - | - | - |
| 1777829056 | 17.22° C | 45% | 1022.2 hPa | 0 mm | - | - | - |
| 1777828756 | 17.22° C | 45% | 1022.4 hPa | 0 mm | - | - | - |
| 1777828456 | 16.67° C | 51% | 1022.4 hPa | 0 mm | - | - | - |
| 1777828157 | 16.67° C | 42% | 1022.5 hPa | 0 mm | - | - | - |
| 1777827856 | 17.22° C | 44% | 1022.6 hPa | 0 mm | - | - | - |
* Rain latest hour (hover to see other rain measurements)
** Current wind speed in m/s (hover to see current wind gust speed)